Overview Statistics Trail Chart Weather Telemetry Raw packets
 

This is the latest recevied weather packets stored in our database for station/object KC1TEM-13. If no packets are shown the sender has not sent any weather packets the latest 10 day(s).

<< 9 10 11 12 13 14 15 >>
Time Temp. Humidity Pressure Rain* Wind** Luminosity Snow
1788554396 26.67° C 52% 1009 hPa 0 mm - 276 W/m² -
1788554092 26.67° C 58% 1009.1 hPa 0 mm - 196 W/m² -
1788553788 26.67° C 51% 1008.9 hPa 0 mm - 166 W/m² -
1788553484 26.67° C 58% 1009.1 hPa 0 mm - 226 W/m² -
1788553179 27.22° C 59% 1008.9 hPa 0 mm - 230 W/m² -
1788552874 27.22° C 52% 1009.1 hPa 0 mm - 213 W/m² -
1788552570 27.22° C 51% 1008.9 hPa 0 mm - 195 W/m² -
1788552268 26.67° C 55% 1008.8 hPa 0 mm - 162 W/m² -
1788551964 26.67° C 59% 1009.1 hPa 0 mm - 188 W/m² -
1788551662 26.67° C 54% 1008.9 hPa 0 mm - 284 W/m² -
1788551361 27.22° C 53% 1008.9 hPa 0 mm - 232 W/m² -
1788551061 27.22° C 53% 1009 hPa 0 mm - 205 W/m² -
1788550757 26.67° C 60% 1009 hPa 0 mm - 316 W/m² -
1788550452 27.22° C 53% 1008.8 hPa 0 mm - 234 W/m² -
1788550147 27.22° C 52% 1008.9 hPa 0 mm - 224 W/m² -
1788549842 27.78° C 50% 1008.6 hPa 0 mm - 166 W/m² -
1788549544 27.78° C 49% 1008.8 hPa 0 mm - 175 W/m² -
1788549235 28.33° C 48% 1008.7 hPa 0 mm - 665 W/m² -
1788548931 28.33° C 48% 1008.9 hPa 0 mm - 645 W/m² -
1788548627 28.33° C 50% 1009 hPa 0 mm - 587 W/m² -
1788548323 27.78° C 55% 1008.9 hPa 0 mm - 605 W/m² -
1788548018 27.78° C 57% 1009 hPa 0 mm - 616 W/m² -
1788547718 28.89° C 57% 1009.1 hPa 0 mm - 625 W/m² -
1788547413 28.89° C 50% 1009.2 hPa 0 mm - 642 W/m² -
1788547109 28.89° C 51% 1009.1 hPa 0 mm - 650 W/m² -

* Rain latest hour (hover to see other rain measurements)
** Current wind speed in m/s (hover to see current wind gust speed)